[[{"header":{"parameterUnit":"m.s-1","parameterCategory":1,"la1":30.2991,"la2":30.254,"lo1":-89.0895,"lo2":-89.0444,"dy":0.0017,"dx":0.0017,"nx":28,"ny":28,"refTime":"2024-07-17T09:00:00:Z","depth":0,"parameterNumber":2,"parameterNumberName":"U-component_of_WINDS"},"data":[0,0,0,0,0,0,0,0,0,0,0,0,0,0,0,0,0,0,0,0,0,0,0,0,0,0,0,0,0,0,0,0,0,0,0,0,0,0,0,0,0,0,0,0,0,0,0,0,0,0,0,0,0,0,0,0,0,0,3.0167,3.0166,0,3.0084,3.0083,3.0082,2.9958,2.9956,2.9954,2.9951,2.9869,2.9869,2.9869,0,0,0,0,0,0,0,0,0,0,0,0,0,3.022,3.022,3.0167,3.0166,3.0165,3.0084,3.0083,3.0082,2.9958,2.9956,2.9953,2.995,2.9869,2.9869,2.9869,0,0,0,0,0,0,0,0,0,0,0,0,0,3.0173,3.022,3.0167,3.0094,3.0086,3.0084,3.0083,3.0082,2.9959,2.9956,2.9952,2.9949,2.9869,2.9869,2.9869,2.9933,0,0,2.9868,2.9868,0,0,0,0,0,0,0,0,3.0176,3.0172,3.0105,3.0099,3.009,3.0028,3.0071,3.0032,2.996,3.0007,2.9951,2.9948,2.9925,2.992,2.9912,2.993,2.9926,2.9868,2.9868,2.9868,2.9868,0,0,0,0,0,0,0,3.018,3.0174,3.0134,3.0105,3.0095,3.0065,3.0055,3.0063,2.9986,3.0003,2.9994,2.9985,2.992,2.9912,2.9909,2.9925,2.9868,2.9868,2.9868,2.9868,2.9988,2.9991,0,0,0,0,0,0,3.0193,3.0178,3.0137,3.0132,3.0126,3.0067,3.0055,3.0051,2.9985,2.9972,2.9988,2.998,2.9914,2.9909,2.9905,2.9973,2.9868,2.9868,2.9868,2.9985,2.9989,2.9993,0,0,0,0,0,0,3.0195,3.0191,3.014,3.0152,3.0143,3.0069,3.0066,3.0051,3.0043,2.9974,2.996,2.9994,2.9911,2.9906,2.9926,2.9969,2.9868,2.9867,2.9981,2.9986,2.9991,3.0113,0,0,0,0,0,0,3.0197,3.0192,3.0216,3.0154,3.0143,3.0163,3.0069,3.0052,3.0043,3.0031,2.9976,2.9964,2.9908,2.9927,2.9926,2.9967,2.9867,2.9977,2.9983,2.9989,3.0105,3.0121,3.0136,0,0,0,0,0,3.0199,3.0255,3.0218,3.0213,3.0171,3.0165,3.0159,3.0094,3.0047,3.0069,3.0025,2.9965,2.9965,2.9931,2.9928,2.997,2.9974,2.9981,2.9989,3.0098,3.0118,3.0135,0,0,0,0,0,0,3.0325,3.0245,3.0203,3.024,3.021,3.0144,3.0171,3.0118,3.0102,3.0092,3.0012,3.0,3.0031,3.0003,2.9965,3.0027,2.996,2.9968,3.0044,3.0063,3.0078,3.0083,2.9867,0,0,0,0,0,3.0357,3.0359,3.0289,3.0328,3.0315,3.0246,3.0242,3.0193,3.016,3.0147,3.0103,3.0074,3.0066,3.0063,3.0053,3.0101,3.0085,3.0128,3.0144,3.0157,3.0163,3.0183,3.02,3.0017,3.0017,3.0017,0,0,3.0423,3.038,3.0386,3.0352,3.0323,3.0326,3.0237,3.0244,3.0245,3.0148,3.0163,3.0132,3.0093,3.0126,3.0139,3.0104,3.0211,3.0166,3.0177,3.0176,3.0193,3.021,3.0225,3.0022,3.0021,3.0021,0,0,3.0544,3.0513,3.054,3.0513,3.047,3.0423,3.043,3.0372,3.0346,3.0361,3.0287,3.0288,3.0278,3.0252,3.0238,3.0348,3.0292,3.0348,3.0428,3.0449,3.0463,3.0475,3.0512,3.0526,3.0355,3.0355,3.0356,0,3.0631,3.0632,3.0561,3.0572,3.0559,3.047,3.0497,3.0474,3.0431,3.0424,3.0385,3.0369,3.0337,3.0362,3.0388,3.0381,3.0385,3.0352,3.0467,3.0478,3.0489,3.0522,3.0537,3.0362,3.0361,3.0361,3.036,0,3.074,3.0743,3.077,3.0728,3.0719,3.0738,3.067,3.0669,3.0622,3.0579,3.0594,3.0553,3.0531,3.0534,3.0489,3.0552,3.0531,3.0481,3.0412,3.0514,3.0544,3.0557,3.0372,3.0369,3.0367,3.0366,0,0,3.0937,3.0855,3.0866,3.0845,3.0791,3.0791,3.0806,3.0784,3.0783,3.0757,3.0766,3.0759,3.0711,3.0696,3.0647,3.0666,3.0752,3.0612,3.061,3.0637,3.0815,3.0851,3.0867,3.0715,3.0717,3.0719,3.0817,0,3.1045,3.1064,3.1,3.1036,3.1036,3.0951,3.0964,3.0933,3.0894,3.0888,3.0845,3.084,3.0779,3.0768,3.0783,3.0738,3.0786,3.0731,3.0721,3.0722,3.0731,3.0883,3.0922,3.1016,3.0829,3.0831,3.0832,0,3.1173,3.1151,3.1186,3.1128,3.1125,3.1138,3.1111,3.1107,3.1069,3.1039,3.1021,3.0964,3.0974,3.091,3.0922,3.0886,3.0879,3.0856,3.0858,3.0852,3.0781,3.0879,3.1045,3.1058,3.0851,3.0849,3.0848,0,3.1308,3.1288,3.1306,3.1291,3.1224,3.1235,3.1208,3.1166,3.1156,3.1134,3.1126,3.1106,3.1094,3.1079,3.1018,3.0978,3.1036,3.0968,3.101,3.1012,3.1024,3.1024,3.1189,3.1026,3.1025,3.1025,3.1025,0,3.1433,3.1458,3.1365,3.1376,3.14,3.1327,3.1353,3.1318,3.1282,3.1284,3.1211,3.1215,3.1135,3.113,3.1083,3.1098,3.1094,3.1069,3.1056,3.1074,3.1077,3.1066,3.1056,3.1029,3.1028,3.1027,3.1027,0,3.1587,3.1527,3.154,3.1476,3.146,3.1481,3.1425,3.1432,3.1389,3.1392,3.1389,3.1321,3.131,3.1249,3.1225,3.1193,3.1224,3.12,3.1236,3.1227,3.1272,3.1267,3.1433,3.1449,3.128,3.1282,3.1283,0,3.1669,3.1686,3.1623,3.1618,3.1594,3.1589,3.1577,3.1507,3.1498,3.1455,3.1467,3.1451,3.1433,3.1421,3.1369,3.135,3.1322,3.1382,3.1319,3.1335,3.1319,3.1317,3.1317,3.1394,3.1396,3.1398,3.14,0,3.182,3.1789,3.1776,3.1751,3.174,3.1718,3.1691,3.1692,3.1613,3.1608,3.1595,3.1582,3.1557,3.154,3.1512,3.1484,3.1428,3.142,3.1428,3.1445,3.1464,3.1451,3.1269,3.1416,3.1414,3.1413,3.1412,3.1412,3.1938,3.1948,3.1904,3.1891,3.1863,3.184,3.1842,3.1799,3.1787,3.176,3.172,3.1712,3.1673,3.1629,3.1605,3.1598,3.1566,3.1579,3.1582,3.1585,3.1593,3.1469,3.1593,3.1593,3.1592,3.1592,3.1591,0,3.2082,3.205,3.2039,3.2003,3.1992,3.1941,3.1909,3.1903,3.1898,3.1865,3.1849,3.1834,3.1818,3.1765,3.1743,3.1748,3.1722,3.1744,3.1741,3.1735,3.1625,3.1618,3.1766,3.1766,3.1766,3.1766,3.1766,3.1766,3.2155,3.2168,3.2132,3.2129,3.2097,3.2088,3.2074,3.2052,3.2025,3.2011,3.1997,3.1962,3.1921,3.1895,3.1878,3.1863,3.1857,3.1887,3.1863,3.176,3.1744,3.1727,3.1721,3.1887,3.1888,3.1974,3.1975,3.1975]},{"header":{"parameterUnit":"m.s-1","parameterCategory":1,"la1":30.2991,"la2":30.254,"lo1":-89.0895,"lo2":-89.0444,"dy":0.0017,"dx":0.0017,"nx":28,"ny":28,"refTime":"2024-07-17T09:00:00:Z","depth":0,"parameterNumber":3,"parameterNumberName":"V-component_of_WINDS"},"data":[0,0,0,0,0,0,0,0,0,0,0,0,0,0,0,0,0,0,0,0,0,0,0,0,0,0,0,0,0,0,0,0,0,0,0,0,0,0,0,0,0,0,0,0,0,0,0,0,0,0,0,0,0,0,0,0,0,0,4.5443,4.5443,0,4.5438,4.5438,4.5438,4.5453,4.5454,4.5454,4.5455,4.5445,4.5444,4.5444,0,0,0,0,0,0,0,0,0,0,0,0,0,4.5461,4.5461,4.5443,4.5443,4.5443,4.5438,4.5438,4.5438,4.5453,4.5454,4.5455,4.5455,4.5445,4.5444,4.5444,0,0,0,0,0,0,0,0,0,0,0,0,0,4.5454,4.5461,4.5443,4.545,4.5451,4.5438,4.5438,4.5438,4.5453,4.5454,4.5455,4.5455,4.5446,4.5445,4.5443,4.5423,0,0,4.544,4.544,0,0,0,0,0,0,0,0,4.5455,4.5454,4.5449,4.5449,4.545,4.5447,4.5441,4.5433,4.5453,4.5452,4.5455,4.5456,4.5445,4.5444,4.5441,4.5422,4.5422,4.544,4.5439,4.5439,4.5439,0,0,0,0,0,0,0,4.5455,4.5454,4.5441,4.5449,4.545,4.5452,4.5452,4.544,4.5444,4.5452,4.5453,4.5453,4.5445,4.5442,4.5441,4.5422,4.544,4.5439,4.5439,4.5438,4.5386,4.5385,0,0,0,0,0,0,4.5455,4.5454,4.5441,4.5441,4.5454,4.5451,4.5451,4.5447,4.5445,4.5445,4.5452,4.5454,4.5444,4.5442,4.5441,4.5417,4.5439,4.5438,4.5437,4.5387,4.5386,4.5385,0,0,0,0,0,0,4.5456,4.5454,4.5441,4.5448,4.5447,4.545,4.5446,4.5447,4.5444,4.5445,4.5445,4.5449,4.5444,4.5442,4.5428,4.5417,4.5438,4.5437,4.5388,4.5387,4.5386,4.5368,0,0,0,0,0,0,4.5456,4.5454,4.5447,4.5448,4.5446,4.5429,4.5445,4.5446,4.5443,4.5444,4.5441,4.5441,4.5445,4.5429,4.5427,4.5416,4.5436,4.5389,4.5387,4.5386,4.537,4.5367,4.5364,0,0,0,0,0,4.5457,4.5441,4.5446,4.5445,4.5437,4.5428,4.5427,4.5433,4.5442,4.5434,4.5435,4.5442,4.5419,4.5428,4.5425,4.5413,4.5389,4.5388,4.5386,4.5371,4.5367,4.5364,0,0,0,0,0,0,4.5436,4.5441,4.5447,4.5431,4.543,4.5431,4.5421,4.5428,4.5423,4.5424,4.543,4.5429,4.5413,4.5412,4.5422,4.5394,4.5405,4.5403,4.5395,4.5391,4.5388,4.5388,4.5435,0,0,0,0,0,4.543,4.5424,4.5428,4.5413,4.5412,4.5417,4.5413,4.5418,4.5416,4.5415,4.5414,4.541,4.5403,4.5397,4.539,4.537,4.537,4.5361,4.5358,4.5356,4.5353,4.5343,4.534,4.538,4.538,4.538,0,0,4.5417,4.5419,4.5414,4.5409,4.5408,4.5401,4.5416,4.5407,4.5401,4.5413,4.5399,4.5399,4.5395,4.5378,4.5371,4.5377,4.5342,4.5354,4.5352,4.535,4.5341,4.5337,4.5334,4.5379,4.5379,4.5379,0,0,4.5388,4.5389,4.5378,4.5378,4.5377,4.5381,4.5378,4.5379,4.538,4.5368,4.5376,4.5369,4.5355,4.5352,4.5349,4.5323,4.5328,4.532,4.5304,4.5295,4.5291,4.5289,4.5279,4.5275,4.5318,4.5318,4.5318,0,4.5371,4.5361,4.537,4.5362,4.5359,4.5372,4.536,4.5359,4.5355,4.5353,4.536,4.5344,4.5343,4.5326,4.5319,4.5316,4.5313,4.532,4.5291,4.5289,4.5286,4.5277,4.5273,4.5317,4.5317,4.5317,4.5317,0,4.534,4.5333,4.5324,4.5323,4.532,4.5309,4.5316,4.5311,4.5317,4.532,4.5307,4.5306,4.5299,4.5295,4.53,4.5279,4.5283,4.5291,4.5303,4.5281,4.5273,4.5269,4.5315,4.5316,4.5316,4.5316,0,0,4.5296,4.5303,4.5299,4.5299,4.5301,4.5295,4.5285,4.5281,4.5277,4.5274,4.5266,4.5255,4.5263,4.5259,4.5264,4.5256,4.5235,4.5265,4.5265,4.5259,4.5212,4.5206,4.5202,4.524,4.5239,4.5239,4.5213,0,4.5268,4.5253,4.5262,4.5245,4.5239,4.5253,4.5244,4.5244,4.5247,4.5241,4.5243,4.5236,4.5247,4.5245,4.5238,4.5239,4.5225,4.5241,4.523,4.523,4.523,4.5197,4.519,4.5165,4.5209,4.5209,4.5208,0,4.5233,4.5232,4.5215,4.522,4.5217,4.521,4.5207,4.5202,4.5202,4.5205,4.5202,4.5209,4.5199,4.5212,4.5198,4.5209,4.5205,4.5205,4.5205,4.5203,4.5217,4.5194,4.5157,4.5153,4.5203,4.5204,4.5204,0,4.5203,4.5197,4.5186,4.5186,4.5191,4.5185,4.5187,4.5188,4.5185,4.5182,4.5181,4.5176,4.5173,4.5169,4.5175,4.5184,4.516,4.5174,4.5161,4.5161,4.5154,4.5154,4.5116,4.5153,4.5153,4.5153,4.5153,0,4.517,4.5159,4.5173,4.5166,4.5154,4.5165,4.5152,4.5155,4.5156,4.515,4.5161,4.5154,4.5163,4.5157,4.5161,4.5149,4.5147,4.5148,4.5149,4.5147,4.5147,4.5143,4.5145,4.5152,4.5153,4.5153,4.5153,0,4.5132,4.5142,4.5131,4.5138,4.5139,4.513,4.5135,4.5129,4.5134,4.5126,4.5124,4.5131,4.5125,4.5131,4.5124,4.5127,4.5111,4.5114,4.5111,4.5112,4.5099,4.51,4.5056,4.5051,4.5093,4.5092,4.5092,0,4.511,4.5103,4.511,4.5107,4.5109,4.5104,4.5102,4.5113,4.511,4.5111,4.5104,4.51,4.5096,4.5086,4.5089,4.5084,4.5088,4.5073,4.5087,4.5085,4.5087,4.5087,4.5086,4.5069,4.5069,4.5068,4.5068,0,4.507,4.5076,4.5073,4.5073,4.5071,4.5071,4.5071,4.5068,4.5079,4.5076,4.5071,4.5068,4.5063,4.5058,4.5055,4.5055,4.5063,4.5064,4.5061,4.5058,4.5056,4.5056,4.5102,4.5065,4.5065,4.5065,4.5065,4.5066,4.5039,4.5034,4.5038,4.5035,4.5038,4.5038,4.5033,4.5039,4.5035,4.5033,4.504,4.5033,4.5034,4.5032,4.5031,4.5026,4.5032,4.5027,4.5026,4.5024,4.5022,4.5058,4.5025,4.5025,4.5025,4.5025,4.5026,0,4.4999,4.5004,4.5001,4.5003,4.5001,4.5012,4.5013,4.501,4.5005,4.5007,4.5004,4.4999,4.4995,4.4999,4.4995,4.499,4.4994,4.4989,4.4988,4.4988,4.5017,4.502,4.4986,4.4986,4.4986,4.4986,4.4986,4.4986,4.4978,4.4969,4.4975,4.4968,4.4972,4.4967,4.4967,4.4968,4.4969,4.4964,4.4961,4.4965,4.4968,4.4965,4.4961,4.4963,4.496,4.4954,4.4956,4.4982,4.4986,4.499,4.4993,4.4954,4.4953,4.4928,4.4928,4.4928]}]]